Theta_e
318 318 318 318 319 319 319 320 320 321 321 321 321 321 322 323 321 316 308 313 315 348 337 331 329 324 337 336 338 338 319 315 319 321 325 335 332 334 339 333 336 337 333 334 339
318 318 318 318 319 319 319 320 320 320 320 320 320 321 322 322 314 310 321 332 336 343 311 315 314 320 318 331 333 329 317 318 323 328 329 333 332 331 332 332 333 335 336 336 338
317 317 318 318 319 319 319 319 319 319 319 319 319 320 322 319 311 315 331 342 345 338 312 312 318 320 315 320 325 323 319 325 327 331 328 326 329 335 330 327 333 330 331 333 334
317 317 318 318 318 318 319 319 318 318 318 320 319 321 322 314 304 319 341 342 346 322 312 311 313 313 313 315 324 317 324 324 326 333 330 328 335 332 333 335 339 336 335 334 333
317 317 317 318 318 318 318 318 317 317 317 321 320 322 312 306 304 325 345 342 335 320 310 310 314 316 310 317 321 317 320 325 328 335 331 330 328 329 331 338 341 338 336 334 333
316 317 317 317 317 317 317 317 316 316 317 322 323 322 306 304 321 329 331 332 324 317 312 310 316 323 318 316 316 319 318 318 334 332 331 328 331 331 332 337 338 337 334 334 333
316 317 317 317 317 317 316 315 315 316 317 323 323 318 310 308 319 329 329 324 321 318 309 312 316 316 321 314 320 318 311 310 322 333 331 332 326 327 332 335 335 335 334 334 333
316 316 316 316 316 316 315 314 314 316 317 323 323 315 306 325 322 315 325 323 322 318 313 313 316 316 318 320 314 307 303 298 311 331 332 326 318 329 334 335 333 334 333 333 332
316 316 315 316 315 315 313 313 315 318 320 324 312 309 307 324 308 309 309 309 321 315 314 316 311 310 313 306 300 302 297 299 303 316 328 324 321 330 336 335 331 332 332 332 332
315 315 315 315 314 313 312 312 314 317 320 322 319 305 309 309 307 309 309 315 316 315 312 309 304 301 303 299 292 296 297 296 298 305 323 322 322 330 334 333 330 330 331 330 332
315 315 314 314 313 311 308 303 300 301 306 302 305 306 308 309 308 306 311 309 313 308 301 306 301 299 303 303 303 302 300 299 304 308 307 321 323 328 332 332 330 329 330 330 333
315 314 313 313 312 310 306 298 302 301 295 305 308 309 312 308 302 305 310 304 308 302 305 303 299 306 309 307 305 303 300 299 303 307 305 320 321 327 328 330 332 331 331 331 333
314 314 313 312 310 307 302 303 308 302 293 300 303 303 305 302 300 301 309 306 305 302 303 300 304 310 309 306 304 301 298 300 300 304 319 319 317 320 325 328 333 335 335 334 332
314 314 312 310 304 302 302 307 305 303 287 294 297 301 301 302 296 307 306 303 302 302 303 303 309 306 305 304 303 294 302 303 303 297 294 314 303 313 321 322 327 323 328 330 333
314 313 310 308 298 299 305 305 306 300 282 299 296 304 300 297 298 301 305 301 296 297 297 297 301 303 302 303 305 301 305 302 301 295 292 295 292 304 319 318 324 321 324 328 333
313 311 309 305 301 303 306 306 300 287 283 294 298 297 295 295 298 301 302 301 301 296 296 296 302 301 301 306 307 307 301 297 295 292 287 291 292 300 312 318 323 328 329 331 331
310 308 307 308 299 304 304 298 287 282 296 293 292 294 293 293 295 297 296 292 290 285 285 294 296 299 303 298 301 300 292 286 286 285 286 290 291 293 317 321 325 326 329 332 332
308 306 307 309 304 305 298 292 284 293 292 296 294 293 291 293 293 296 293 290 293 290 286 285 286 294 300 298 297 294 292 287 282 283 287 293 289 296 311 324 325 329 330 327 328
307 304 305 307 309 302 294 286 286 292 297 295 294 290 291 294 292 292 292 291 294 293 286 285 288 298 300 298 300 296 292 294 288 287 287 290 295 301 309 308 323 323 323 324 328
300 302 303 311 307 298 291 291 292 298 299 296 289 292 288 291 291 291 290 296 295 297 292 289 285 291 298 298 300 298 299 291 288 283 282 288 290 293 301 308 317 321 322 324 332
304 301 306 307 305 296 290 292 297 300 301 295 292 291 291 290 291 290 291 296 298 297 295 289 286 288 292 289 288 290 289 291 290 289 284 284 289 300 305 309 310 321 324 327 331
301 296 308 307 297 294 289 293 299 297 299 296 296 294 292 292 290 291 291 294 300 297 291 290 285 283 287 293 295 292 289 287 285 284 287 289 290 304 308 309 309 311 324 329 332
298 300 307 305 289 289 293 296 297 295 295 295 294 294 293 290 287 292 294 300 300 297 292 291 284 281 284 287 292 290 291 288 286 283 282 283 286 303 307 308 308 308 322 329 332
299 293 298 298 295 292 290 292 292 299 297 297 294 293 290 288 289 289 291 297 299 300 307 296 284 283 279 283 288 287 291 292 285 280 282 283 286 294 298 300 302 306 312 329 330
298 293 296 291 293 293 294 293 293 291 296 296 293 293 289 284 286 287 290 291 296 301 295 290 282 284 285 289 290 290 290 291 287 286 283 286 287 290 294 297 299 302 306 319 327
296 295 297 292 294 294 292 290 292 293 293 291 291 294 292 286 287 286 288 286 286 291 291 290 285 286 285 291 291 289 291 292 291 292 291 291 288 293 295 299 299 303 304 306 309
304 302 297 293 292 290 289 291 294 294 295 297 296 292 291 293 295 293 291 290 290 287 286 287 286 283 279 288 288 283 288 290 291 292 291 287 291 294 295 298 299 303 307 308 309
Wind_Speed
19 19 19 19 19 19 18 18 17 16 15 14 12 11 10 8 8 3 7 11 8 8 5 5 5 5 5 3 5 3 3 3 4 4 5 6 5 3 3 10 5 3 12 19 20
19 19 20 20 20 20 19 19 17 16 15 14 12 11 9 5 3 9 10 10 12 12 5 6 7 6 2 4 3 5 4 6 5 5 6 9 4 8 6 9 7 3 16 17 20
19 19 19 20 20 21 20 20 18 16 16 14 12 10 7 3 3 7 15 13 15 13 3 4 5 5 5 3 6 6 7 5 13 15 5 3 2 5 6 7 8 20 22 18 16
20 20 20 20 20 21 20 20 19 17 14 13 9 7 4 2 3 3 17 18 14 8 4 4 3 5 5 9 10 6 12 13 9 13 6 4 5 4 4 4 8 19 22 20 20
21 21 21 21 21 21 20 20 19 17 13 10 6 5 1 1 10 5 16 16 8 7 7 7 7 5 6 7 12 11 19 14 13 19 19 16 18 4 4 8 8 17 18 19 17
21 21 21 22 22 21 20 20 19 16 13 9 6 4 2 3 5 13 13 10 7 8 7 9 8 11 5 9 8 7 8 8 20 18 12 11 6 4 8 10 11 17 19 16 11
22 22 21 22 23 23 22 21 20 16 11 8 2 4 4 12 2 12 14 10 9 11 7 11 11 3 4 7 12 12 9 8 14 22 13 10 2 10 12 10 13 14 17 14 8
23 24 24 24 24 24 22 21 22 16 9 4 4 2 9 7 4 8 10 4 7 8 7 5 7 6 4 7 6 4 3 4 8 21 11 7 6 4 12 12 12 16 16 14 7
22 23 24 24 24 23 23 25 24 11 8 9 3 2 10 9 5 8 8 7 11 4 7 5 3 7 4 4 5 6 2 4 10 13 13 8 6 11 13 21 17 17 17 15 8
21 23 24 24 24 24 24 26 6 8 5 6 5 3 7 5 4 4 6 9 6 7 2 3 3 3 2 4 5 3 3 4 5 5 10 6 6 13 13 15 20 18 19 18 14
23 23 24 24 24 21 14 5 4 3 2 9 6 4 4 4 3 3 3 5 5 5 5 5 4 6 9 6 6 3 4 9 16 13 6 10 15 20 16 13 18 16 16 19 15
23 23 24 25 25 23 3 1 7 4 7 10 14 12 15 8 2 4 6 4 6 5 4 4 5 8 5 6 7 5 6 15 15 8 6 14 18 18 20 16 16 16 16 18 17
22 23 24 27 29 4 5 7 8 5 2 8 7 6 6 5 2 3 6 4 5 5 5 7 8 8 9 8 8 8 7 13 12 3 8 9 6 13 9 10 11 10 11 5 16
23 23 23 28 4 5 5 6 9 5 5 8 5 5 4 6 2 4 3 3 2 10 6 6 14 10 9 11 6 7 7 14 11 2 4 5 3 6 11 9 9 10 15 15 15
22 21 19 12 4 4 7 10 9 7 2 2 2 2 4 8 3 6 2 5 1 3 4 7 5 8 11 13 8 14 13 11 2 1 4 2 4 5 15 15 17 21 20 19 21
22 20 18 2 1 9 8 11 5 7 3 3 4 4 5 1 2 4 2 3 2 1 1 8 6 3 8 12 10 12 6 5 5 4 3 5 7 5 16 24 22 18 21 21 23
25 22 11 4 6 4 7 6 6 3 7 2 4 4 5 4 3 5 3 1 3 3 4 5 5 4 4 3 5 5 7 3 5 3 6 3 4 9 24 19 27 29 28 25 17
25 24 5 6 6 5 5 6 7 6 6 5 3 5 5 4 3 4 4 3 2 0 1 3 6 4 7 3 6 3 10 8 7 2 4 3 4 7 15 20 26 33 25 14 14
22 4 3 6 7 4 6 7 1 5 7 10 6 9 9 8 4 2 6 10 5 5 6 2 5 6 3 4 3 4 2 7 7 1 5 4 8 5 12 5 14 20 16 19 17
3 4 4 6 5 5 6 4 4 7 8 7 7 4 8 8 8 7 8 9 4 8 2 2 4 4 7 8 8 0 3 4 4 5 4 5 5 5 12 15 6 13 20 18 17
3 5 6 3 5 6 4 1 7 14 13 8 7 7 5 5 5 7 8 8 8 8 10 6 5 9 5 6 3 9 8 5 6 5 6 3 5 2 9 14 15 17 21 16 17
3 5 6 4 5 3 5 5 7 11 12 8 10 9 5 8 6 5 5 6 11 5 5 5 3 4 7 5 4 5 8 8 5 2 3 4 5 2 11 16 18 16 4 9 8
3 3 6 7 5 5 5 9 11 9 9 7 10 8 6 6 5 6 5 11 13 9 5 5 4 6 15 8 9 7 8 7 4 4 4 6 5 9 13 16 15 19 9 12 8
3 5 6 6 1 6 5 8 5 10 14 9 7 8 8 8 5 5 8 11 12 8 14 6 3 5 5 4 4 7 14 9 5 4 4 2 4 9 11 12 14 18 18 8 7
4 1 3 3 6 8 10 5 11 7 6 12 7 10 5 6 7 5 7 8 7 13 8 5 2 4 2 4 5 8 14 11 5 4 3 6 6 3 3 7 9 10 10 10 6
4 4 5 3 4 10 6 5 8 5 6 3 5 5 6 5 1 4 5 4 3 8 8 5 3 5 7 8 9 8 10 12 9 5 5 7 6 5 3 6 8 8 11 14 15
3 3 5 7 5 5 3 3 5 3 7 6 3 2 5 4 4 5 5 5 6 1 2 0 3 4 3 7 8 8 4 5 8 3 0 4 6 4 8 8 7 10 13 12 11
Wind_Direction
349 348 346 344 343 340 339 338 335 330 324 317 315 316 310 303 299 206 235 220 185 183 126 153 206 219 192 232 229 208 314 275 308 357 106 125 179 179 139 150 177 185 159 151 153
348 346 344 341 340 340 338 337 335 331 325 317 313 311 306 308 264 240 234 228 210 165 163 172 186 180 224 215 228 200 193 231 186 115 103 138 161 163 152 182 159 135 143 142 150
345 343 341 339 337 337 336 335 333 331 325 317 307 303 294 293 295 247 197 201 173 172 173 174 187 174 210 249 209 225 239 251 276 101 111 170 234 184 182 196 171 154 161 155 155
343 341 338 336 335 335 334 333 331 329 329 319 303 289 276 248 250 254 164 182 170 164 166 155 212 187 203 222 218 275 261 250 251 121 126 164 341 217 187 163 153 166 170 157 156
340 338 336 334 333 332 331 330 328 326 327 325 299 267 245 205 250 194 158 172 150 160 186 178 180 182 219 206 244 240 253 266 277 149 165 154 224 175 169 116 122 163 178 164 158
338 335 333 332 330 330 329 325 321 319 319 312 271 170 215 247 223 151 153 152 180 172 185 176 205 208 257 241 228 258 269 273 149 155 151 166 265 227 158 132 142 164 180 176 164
334 332 332 330 328 327 326 319 312 310 304 303 214 206 270 238 173 151 159 180 183 182 172 206 223 302 358 314 241 250 275 295 163 162 177 168 156 229 139 133 156 177 178 179 170
331 330 331 329 327 324 322 313 306 299 271 243 161 246 249 251 247 194 202 188 190 193 199 208 207 275 198 258 314 352 53 301 151 167 176 166 157 180 157 142 158 165 180 180 198
329 328 328 326 323 322 319 310 306 279 204 158 115 185 268 310 222 219 170 193 177 196 214 222 180 215 292 280 356 17 252 292 308 169 146 221 136 197 175 151 167 169 175 187 197
326 326 325 324 321 323 321 305 281 104 171 182 252 333 272 223 205 182 205 129 165 176 206 187 180 238 339 104 219 268 308 314 240 306 139 173 172 173 169 173 165 175 176 182 195
324 325 323 320 318 322 336 358 27 42 234 194 197 241 296 269 122 214 212 143 161 106 171 193 127 220 243 187 193 214 286 279 286 281 215 185 158 180 173 187 172 184 185 184 197
322 322 321 319 318 320 282 254 227 199 301 231 243 243 260 271 327 260 124 132 138 180 177 331 217 226 245 225 240 258 254 274 282 272 205 163 177 175 180 187 183 182 184 197 193
321 322 324 322 319 322 209 235 268 41 303 283 215 205 221 159 201 266 126 174 164 186 203 188 243 231 240 268 237 246 223 257 251 335 49 113 145 182 190 209 187 182 186 234 211
322 324 329 330 345 329 275 277 316 152 49 278 187 236 144 133 277 186 141 131 52 196 209 211 235 226 225 243 219 256 222 250 269 73 185 163 206 170 163 183 192 193 193 209 227
321 322 331 325 279 312 261 330 325 58 71 156 79 172 124 127 171 5 53 44 169 268 67 254 251 217 227 236 205 247 248 241 259 64 122 293 103 293 157 194 202 208 221 197 209
318 319 331 131 236 244 315 308 46 51 244 115 136 148 99 132 42 175 107 66 152 309 173 229 249 207 233 242 226 249 255 339 54 90 35 210 145 183 176 201 199 213 226 209 202
317 315 305 253 239 336 338 34 48 115 321 119 171 142 146 185 168 165 155 177 137 79 328 328 275 270 216 315 332 174 68 352 338 5 206 147 44 225 211 191 192 199 211 212 195
320 313 206 220 248 14 22 51 50 7 356 327 109 120 166 154 205 141 112 23 30 276 48 206 321 8 348 116 211 169 153 161 193 187 264 41 206 258 205 202 190 199 196 192 187
321 329 299 262 229 101 59 46 10 348 351 334 33 43 15 358 82 117 93 350 45 13 127 61 271 316 80 310 178 265 134 191 126 100 66 279 309 341 44 277 204 192 185 191 184
356 347 276 261 139 69 68 7 28 15 7 24 61 32 32 1 49 37 26 337 56 12 85 312 325 344 314 358 20 292 176 42 10 136 177 306 342 274 4 339 242 200 199 200 181
34 26 262 12 76 48 108 63 53 12 20 40 13 53 60 15 58 29 7 45 12 350 52 20 70 297 22 59 17 352 350 47 112 131 141 122 288 24 49 21 5 216 209 198 184
358 35 294 53 47 81 46 4 49 10 15 18 45 65 54 13 34 81 53 35 359 354 34 322 114 316 253 303 308 108 44 26 98 235 51 115 248 323 59 57 31 9 226 128 148
41 273 323 65 67 17 30 52 57 25 13 30 34 37 28 38 55 44 60 19 31 36 29 323 12 355 339 12 21 24 19 358 272 11 158 123 268 349 47 47 39 22 7 147 129
65 31 337 31 37 102 105 50 53 33 43 50 50 49 33 33 12 52 22 20 7 30 24 48 63 134 177 189 265 324 334 0 70 54 316 208 359 27 29 34 32 43 29 34 60
41 313 208 329 1 59 59 56 50 17 18 22 38 40 23 22 13 36 12 3 351 16 20 68 30 7 249 292 326 316 316 329 345 323 296 298 334 328 43 18 20 53 36 53 8
82 48 0 15 25 60 34 6 66 23 38 15 70 8 47 81 87 314 24 42 293 353 8 8 329 19 345 360 2 328 316 311 298 301 293 322 300 30 72 80 33 30 63 43 28
333 354 92 316 19 62 358 44 66 64 345 100 73 46 38 324 293 247 213 202 227 240 298 25 103 54 305 353 354 317 276 302 309 312 251 317 262 330 31 50 39 48 35 40 13